Location: Castelbiague
(43.0361°N, 0.9246°E)
Time: 15:38:31
(UTC+00:00)

Cosmos 1461 - Pass Details

Date: 17 June 2021
Orbit: 513 x 649 km, 65.0° (Epoch: 04 August)

Event Time Altitude Azimuth Distance (km) Brightness Sun altitude
Rises 21:28:05 0° 326° (NW) 2,807 8.4 -15.2°
Reaches altitude 10° 21:30:22 10° 326° (NW) 1,880 6.9 -15.4°
Maximum altitude 21:34:35 89° 252° (WSW) 558 2.8 -15.9°
Enters shadow 21:36:24 32° 148° (SSE) 943 3.4 -16.1°
